Wind_Speed
64 67 68 69 70 70 70 70 70 71 71 71 70 69 67 66 65 65 65 64 64 64 64 64 64 63 63 63 63 64 64 65 66 67 68 69 69 69 69 70 71 72 72 73 74 75 76 77 78 80 81 82 83 84 85 87 88 90 93 94 96 97 98 100 101 103 104 105 106 108 109 109 110 111 112 113 114 113 112 111 110 109 109 109 110
68 70 71 72 72 72 72 73 73 73 74 73 72 70 68 66 66 66 66 65 64 63 63 64 63 64 64 64 64 65 66 67 68 69 70 71 71 71 71 72 73 74 74 75 76 77 78 80 81 82 84 85 86 87 88 89 90 91 94 95 97 99 100 101 103 105 106 107 108 109 109 110 112 113 113 113 113 112 111 110 109 108 108 109 110
71 72 73 74 74 75 75 75 75 75 76 75 74 72 70 68 67 67 67 67 66 65 65 65 64 64 65 65 65 66 67 69 70 71 72 72 73 73 73 74 75 75 76 78 79 80 81 83 84 85 86 87 88 89 91 91 92 93 95 97 99 100 101 103 105 106 108 109 110 110 110 112 113 113 113 112 112 111 110 109 108 108 109 110 111
73 74 75 76 77 77 78 78 79 78 78 77 75 73 71 70 69 69 69 69 68 67 67 67 66 66 66 66 67 68 69 71 72 72 73 74 74 74 74 75 76 78 80 81 82 83 84 85 86 87 87 88 89 91 93 94 95 96 98 99 101 102 104 105 107 108 109 111 111 112 112 113 114 114 113 113 112 110 109 108 109 110 110 111 112
76 77 78 78 79 80 81 82 82 82 80 79 76 74 72 71 71 71 71 70 70 69 69 69 68 67 67 68 69 70 71 72 73 73 74 74 75 75 76 77 79 81 82 84 84 85 86 87 88 89 90 90 92 94 96 97 98 99 100 102 103 105 107 108 109 110 111 113 114 114 114 115 116 115 114 113 111 109 108 109 111 112 112 112 113
79 80 80 81 81 83 84 85 85 83 81 79 77 75 73 73 72 72 72 72 71 71 71 70 69 69 70 71 71 72 72 73 73 74 74 75 76 77 79 80 82 83 84 85 86 87 88 89 91 91 92 93 95 97 99 100 101 101 103 104 106 107 109 111 111 112 114 115 116 116 116 117 118 117 115 113 111 110 110 111 113 113 113 113 113
80 82 82 82 84 86 87 88 86 84 81 79 77 75 74 74 73 73 73 72 72 72 71 71 72 72 72 73 73 73 73 74 74 75 76 77 78 79 80 81 82 83 84 85 86 87 89 91 92 93 94 96 98 100 102 103 104 105 106 107 109 110 112 113 114 115 116 117 118 119 119 120 120 118 116 113 112 112 112 113 113 114 114 114 114
81 82 83 85 88 89 90 89 86 84 82 79 77 76 75 75 74 74 73 73 73 72 73 73 74 74 74 74 74 75 75 75 76 77 78 79 79 79 80 81 82 83 85 86 87 89 91 93 95 96 98 100 103 104 106 107 108 109 110 111 112 113 114 115 117 118 119 120 121 122 122 122 121 118 116 115 114 114 114 114 114 114 114 114 114
82 84 86 89 90 90 89 88 86 83 81 79 78 77 76 76 75 74 73 73 73 73 74 75 75 76 76 76 76 75 75 76 76 78 79 79 80 80 81 82 83 85 87 89 90 92 94 97 98 100 103 105 107 108 109 110 111 112 113 114 115 116 117 119 120 121 122 123 125 125 124 123 121 118 117 117 117 116 116 116 115 114 114 113 114
86 88 89 90 91 90 88 86 84 82 80 78 78 77 77 76 75 74 73 74 74 75 75 76 77 77 77 76 76 76 76 77 79 80 82 82 83 84 85 86 87 89 91 93 95 96 99 100 102 105 107 109 111 112 113 114 115 115 116 117 118 119 121 123 124 125 126 127 127 126 125 123 120 118 118 119 119 118 117 116 116 115 114 113 114
90 91 91 90 90 88 86 83 81 79 77 76 77 77 76 76 75 75 75 75 76 76 77 78 78 78 78 77 77 78 79 81 83 85 86 87 87 88 89 90 92 93 95 97 99 101 103 105 107 109 112 114 115 115 117 118 119 119 119 120 122 124 127 128 129 129 130 129 128 127 125 122 121 120 120 120 120 120 118 117 116 115 114 113 113
92 92 92 90 88 85 82 80 78 76 75 75 76 76 76 76 76 76 77 77 77 78 78 79 80 79 79 79 80 81 84 86 88 89 90 91 92 92 93 94 95 97 99 101 103 105 107 109 111 113 116 118 119 120 121 122 123 123 124 126 128 130 131 132 133 132 131 129 128 126 125 123 122 122 121 121 121 120 119 117 116 115 114 114 113
93 93 92 89 86 82 79 77 76 76 75 75 76 76 76 76 77 78 78 79 79 80 80 81 81 82 82 83 84 86 88 90 91 92 93 95 95 96 97 98 99 100 102 104 106 109 111 112 115 118 121 122 124 125 126 127 127 128 129 130 131 133 134 134 134 133 131 129 127 126 125 124 123 123 122 122 121 120 119 117 116 115 114 114 114
94 92 90 87 83 80 77 76 75 76 76 76 76 77 77 78 79 80 80 81 81 82 83 83 84 85 86 87 88 90 91 93 94 95 96 97 98 99 100 101 102 104 106 108 111 113 115 117 119 122 125 126 128 129 130 130 130 131 131 132 133 134 135 135 134 132 129 127 126 126 126 126 125 124 123 122 121 120 119 117 116 115 114 114 115
92 90 87 83 81 79 77 76 75 76 77 78 78 78 79 79 80 81 82 83 84 84 85 86 87 89 90 91 92 92 94 95 96 97 99 100 101 101 102 103 105 107 109 111 114 116 118 120 123 125 127 129 130 131 132 132 132 132 133 134 135 135 135 134 133 130 128 127 126 127 127 126 126 125 124 123 121 120 119 118 116 115 114 114 115
90 87 84 82 80 79 77 76 76 77 79 80 80 81 81 81 82 83 84 85 86 86 88 89 90 91 92 92 93 94 95 96 97 99 101 102 102 103 104 105 107 108 111 114 116 119 121 123 125 127 129 131 132 133 133 133 133 134 134 135 135 134 134 132 130 128 127 127 127 127 127 127 126 125 124 123 121 120 119 118 116 115 114 114 114
88 85 83 81 80 79 78 78 79 79 80 81 82 83 83 84 85 86 86 87 88 89 90 90 91 92 93 94 94 95 95 97 98 100 102 103 104 105 106 107 108 110 113 116 119 122 124 126 128 130 131 133 134 135 135 134 134 134 134 134 133 132 132 130 129 128 127 127 127 127 127 127 126 125 124 122 120 119 118 117 116 115 114 114 113
86 84 82 81 80 80 80 81 81 82 82 83 83 84 84 84 85 86 87 88 89 90 90 91 91 92 93 94 94 95 96 97 99 102 103 105 105 106 108 109 111 114 116 119 122 124 127 129 131 132 133 134 135 135 135 135 134 134 133 133 132 131 130 129 128 128 127 127 127 127 126 126 125 124 123 121 120 119 118 117 116 115 115 115 114
84 83 82 81 81 81 82 83 83 83 83 82 82 82 82 83 83 84 85 87 88 89 89 90 91 91 92 93 94 96 97 98 100 103 105 106 107 109 111 112 115 117 120 123 125 126 128 130 132 133 134 135 135 135 135 134 134 133 132 131 130 129 128 127 127 127 127 127 126 126 126 125 125 123 122 121 121 120 118 117 116 116 116 115 114
84 83 83 82 82 83 83 84 84 83 82 81 80 80 80 81 82 83 84 85 86 88 89 90 91 92 93 94 95 97 98 100 102 105 108 109 110 112 114 116 118 121 123 125 126 128 129 131 132 134 135 135 135 135 134 133 132 131 129 128 128 127 127 126 127 127 127 126 126 126 125 124 123 122 122 121 120 119 117 117 117 117 116 115 113
85 85 84 83 83 83 84 84 84 83 82 81 81 81 81 82 83 84 85 86 87 88 89 91 92 93 95 96 98 99 101 102 105 108 110 112 114 115 117 119 121 123 125 126 127 129 130 132 133 134 135 135 134 133 132 131 129 128 127 126 126 126 126 126 126 126 126 125 125 124 123 122 122 122 121 120 119 118 117 117 117 117 117 115 112
87 86 85 84 84 84 84 84 84 84 84 84 84 83 83 84 85 86 87 88 89 89 91 92 94 96 97 99 101 102 104 105 108 111 113 116 118 119 120 122 124 125 126 127 128 129 131 132 133 133 134 133 133 131 130 128 127 126 126 126 126 126 126 126 126 125 125 124 123 122 121 121 121 121 120 119 118 117 117 117 117 117 116 114 112
88 87 86 85 85 85 85 85 85 85 86 86 87 86 87 87 88 89 90 90 91 92 94 95 97 99 100 102 103 105 107 110 112 115 118 120 121 122 123 124 125 126 127 128 129 130 130 131 131 131 131 131 130 129 128 127 126 126 126 126 126 126 126 126 125 124 123 122 121 121 120 120 120 119 117 116 116 116 116 116 116 115 114 112 110
89 88 87 87 86 86 86 87 87 88 88 89 90 90 90 91 91 92 93 93 94 96 97 98 100 102 104 106 108 111 114 116 118 119 121 123 124 125 125 126 126 126 127 128 128 129 129 129 129 128 128 127 127 126 126 126 126 126 125 125 125 125 125 125 123 122 121 120 120 120 119 119 118 116 115 114 114 115 115 114 114 113 112 110 109
89 89 89 89 89 89 89 90 90 90 91 92 92 93 93 94 94 95 96 97 98 99 101 102 104 106 110 113 116 118 119 120 121 122 123 124 126 126 127 127 127 127 128 128 128 128 127 127 126 125 125 125 125 125 125 125 125 125 125 124 124 124 124 123 122 121 120 120 119 119 118 117 115 114 113 113 114 114 114 113 112 111 110 109 107
90 91 91 92 92 92 92 92 93 93 94 94 95 95 95 96 97 98 99 101 103 104 106 109 111 113 116 119 120 122 122 123 124 124 125 126 126 127 127 127 128 128 127 127 126 126 125 124 123 123 122 122 123 123 124 124 124 124 124 123 123 122 122 121 121 121 120 120 119 118 117 115 114 114 114 114 114 114 113 112 111 110 109 107 105
92 92 93 93 94 94 94 94 95 95 96 97 97 97 98 99 101 102 104 106 108 111 113 115 117 119 121 122 123 124 125 126 126 126 126 126 127 128 128 128 128 127 126 125 123 122 122 121 121 120 120 121 121 122 122 122 122 122 122 121 121 120 120 120 120 121 120 120 119 117 116 115 114 114 114 114 114 114 113 112 111 109 107 105 103
94 94 95 95 95 95 96 96 97 97 98 99 100 101 102 103 106 108 110 113 115 117 119 120 122 123 124 125 126 127 127 128 128 127 127 127 128 128 128 127 126 125 123 122 121 120 120 120 119 119 119 119 120 120 120 120 120 120 120 119 119 119 119 119 120 120 119 118 117 116 115 114 114 114 114 114 114 113 112 111 110 108 106 103 102
97 97 97 97 97 97 97 97 98 99 100 102 103 105 107 109 112 114 116 118 120 122 123 124 125 126 126 127 128 128 128 129 128 128 128 128 128 127 126 125 123 122 120 119 119 119 119 119 118 118 118 118 118 118 118 118 117 117 118 118 118 119 119 118 118 118 117 116 115 114 114 114 114 114 115 114 114 112 111 110 109 107 104 102 101
99 99 99 99 99 99 100 101 102 103 105 106 109 111 113 116 118 120 122 123 124 126 127 128 129 129 129 129 129 129 130 130 129 128 128 127 126 125 123 121 120 119 118 117 117 117 117 117 117 117 116 116 116 116 115 115 115 115 115 116 117 117 117 116 115 114 113 113 113 113 113 114 114 114 114 113 112 112 111 110 108 106 103 101 99
103 103 103 104 104 105 106 108 109 111 112 114 116 118 120 122 123 125 126 127 128 129 131 131 132 131 131 131 131 131 130 129 128 127 125 124 122 121 120 119 118 117 116 116 115 115 115 115 115 114 114 114 114 114 114 114 114 114 114 115 115 115 114 113 113 112 111 111 111 112 113 114 114 114 113 112 111 111 111 110 107 104 102 100 98
110 111 111 112 113 114 115 116 118 119 120 122 123 124 126 127 128 129 130 130 131 133 134 134 134 134 133 132 131 130 129 127 125 123 122 121 120 119 118 117 116 115 114 114 114 114 113 113 113 112 112 112 112 112 112 113 113 113 113 113 112 112 112 111 111 111 110 110 110 111 112 113 113 112 111 110 110 110 110 108 105 102 100 98 96
118 119 119 120 120 121 122 122 123 125 126 127 128 129 130 131 132 132 133 133 134 135 135 135 135 134 133 131 129 127 126 124 123 121 120 119 117 116 115 114 114 113 113 112 112 112 111 111 111 111 111 111 111 111 111 112 112 112 111 111 110 110 110 110 110 111 110 110 111 111 112 112 112 111 110 109 109 109 108 105 102 100 98 96 94
124 124 125 125 125 126 126 127 127 128 129 131 132 133 134 134 134 135 135 135 135 136 136 135 133 131 129 127 125 124 123 122 120 119 117 116 115 114 113 112 111 111 110 110 110 110 110 110 110 110 110 110 110 110 110 110 110 110 110 110 110 110 110 110 110 111 111 111 112 112 112 111 111 109 109 109 108 108 106 103 100 98 96 94 90
128 128 129 129 129 129 130 130 131 132 132 133 134 135 135 135 135 135 134 134 134 133 132 130 128 126 124 123 122 121 120 119 117 116 114 113 112 111 110 110 109 109 109 109 109 109 109 109 109 109 109 108 108 108 109 109 109 109 109 109 109 110 110 110 110 111 112 112 113 112 112 111 111 110 109 108 107 106 103 100 98 96 94 91 88
133 133 133 133 133 133 133 134 134 134 134 135 135 135 135 135 134 133 132 131 129 127 126 125 123 122 121 120 119 118 116 115 114 112 111 110 110 109 108 108 108 108 108 108 108 107 107 107 107 107 107 107 108 108 108 108 108 108 108 109 109 110 110 110 111 112 113 113 113 113 112 111 111 110 108 106 105 104 101 99 96 94 91 88 85
136 136 136 136 136 136 136 136 136 136 136 135 135 134 134 132 131 130 128 126 125 123 123 122 120 119 118 116 115 114 112 111 110 110 109 108 108 107 107 107 107 107 107 106 106 106 106 106 107 107 107 108 108 108 108 108 108 108 108 109 109 110 110 111 112 113 113 114 114 113 113 112 110 109 106 105 103 102 99 97 94 91 89 86 84
138 138 138 138 138 138 138 137 137 136 135 134 133 132 130 129 127 126 125 123 122 121 119 118 117 116 115 113 112 111 110 109 109 108 108 107 107 106 106 106 106 106 106 106 105 106 106 106 106 107 107 108 108 109 109 108 108 108 109 109 110 111 111 112 112 113 113 114 114 114 112 111 109 106 104 103 101 99 96 94 91 88 86 84 82
139 139 138 138 138 137 136 135 134 133 131 130 129 128 127 126 125 123 122 120 119 117 116 115 114 113 112 111 109 108 108 107 107 107 107 106 106 106 106 106 105 105 106 105 105 105 105 106 106 107 108 108 109 109 109 109 109 109 110 110 111 111 112 113 113 113 113 113 113 113 111 109 106 104 102 100 99 96 93 91 88 86 84 82 80
137 136 135 134 134 133 132 131 130 129 128 127 126 125 123 122 121 119 118 116 115 114 112 111 110 110 109 108 107 106 106 106 106 106 106 106 105 105 105 105 105 105 105 105 105 105 106 106 107 108 108 109 109 109 109 109 109 110 110 110 111 112 112 113 113 113 113 112 112 111 109 107 103 101 99 97 95 93 90 88 86 84 82 80 79
133 133 132 131 130 129 129 128 127 126 124 123 122 120 119 118 117 115 114 112 111 110 109 109 108 108 107 107 106 106 106 106 106 106 106 106 106 106 105 105 105 105 105 105 105 106 106 107 108 108 109 109 109 109 110 110 110 110 110 111 111 112 112 112 112 112 112 111 110 108 106 104 101 98 96 94 91 89 88 86 84 82 80 79 77
130 130 129 128 127 126 124 123 122 120 119 118 116 116 115 114 113 112 110 109 108 108 107 107 107 107 107 107 107 107 107 107 107 106 106 106 106 106 105 105 105 104 104 105 105 106 107 108 108 109 109 109 109 110 110 110 110 111 111 112 112 112 112 112 112 111 110 109 107 105 103 101 98 95 92 90 88 87 85 84 82 80 79 77 75
126 125 124 122 121 120 119 118 116 115 114 113 112 112 111 111 110 109 108 108 107 107 107 107 107 107 107 107 107 106 106 106 106 106 106 105 105 105 105 105 104 104 104 105 106 107 107 108 108 109 109 109 109 109 110 110 111 111 111 112 112 111 111 111 110 109 107 105 104 102 100 97 94 92 90 87 86 84 83 82 81 79 77 76 74
120 119 118 117 116 116 115 114 113 112 111 111 110 110 109 109 108 108 107 107 107 107 107 107 107 106 106 106 105 105 105 105 104 104 104 104 104 104 104 104 104 104 105 105 106 107 107 108 108 108 108 109 109 109 110 111 111 111 111 111 111 110 110 109 107 105 103 102 100 99 96 94 92 89 87 85 83 82 81 80 79 78 76 74 72
115 115 114 113 113 113 113 112 112 111 111 110 110 109 109 108 108 108 108 107 107 106 106 106 105 105 105 104 104 104 104 103 103 103 103 103 103 103 103 103 103 104 104 105 106 107 107 107 107 108 108 108 109 110 110 111 111 111 110 110 109 108 107 105 104 102 100 98 97 95 94 92 89 87 85 83 82 80 80 79 78 77 75 73 71
114 113 112 112 112 112 112 112 111 111 111 110 110 109 109 109 108 108 107 106 106 105 105 104 104 103 103 103 103 103 103 103 102 102 102 102 102 102 102 102 103 104 104 105 106 106 106 106 107 107 108 108 109 109 110 110 110 109 109 107 106 105 103 102 100 99 97 95 94 92 91 89 87 85 83 82 80 79 78 78 77 75 73 72 70
113 113 113 112 112 112 112 112 111 111 110 110 109 108 108 107 107 106 105 105 104 104 104 103 103 103 103 103 102 102 102 102 102 101 101 101 101 101 102 102 103 103 104 104 105 105 105 106 107 107 108 108 109 109 109 108 108 107 105 104 102 101 99 98 97 95 94 92 91 90 88 87 85 83 82 81 80 78 77 76 75 74 72 71 70
113 113 113 112 112 112 111 111 110 109 108 108 107 106 105 105 104 104 103 103 103 103 103 103 102 102 102 102 101 101 101 101 101 101 101 101 101 101 102 102 102 103 103 104 104 105 105 106 106 107 107 107 108 107 107 106 104 103 102 100 99 97 96 94 93 92 91 90 89 88 86 85 83 82 81 80 79 77 76 74 73 72 71 70 69
111 111 110 110 110 110 109 109 108 107 106 105 104 104 103 103 102 102 102 102 102 102 102 102 102 102 101 101 101 101 101 101 101 101 100 100 101 101 101 102 102 102 103 103 104 104 105 105 106 106 106 106 106 105 104 102 101 100 98 97 95 94 92 91 90 89 88 88 87 86 85 83 82 81 80 79 78 76 74 73 72 70 70 69 68
109 109 109 109 109 108 108 107 106 106 105 104 104 104 103 103 103 103 103 103 103 102 102 102 102 101 101 101 101 101 100 100 100 100 100 100 100 100 101 101 101 101 102 102 103 103 104 104 104 104 104 104 103 102 100 99 97 96 94 93 92 91 90 89 88 87 86 85 85 85 84 82 81 80 78 77 76 74 73 72 71 69 68 68 67
108 108 108 108 108 107 107 106 106 105 105 105 104 104 104 104 104 103 103 103 103 102 102 101 101 101 100 100 100 99 99 99 99 99 99 99 99 99 99 100 100 101 101 102 102 102 103 102 102 102 101 100 100 99 97 96 94 92 91 90 90 88 87 87 86 85 84 84 84 84 83 81 80 78 76 75 74 73 72 71 70 68 67 66 65
Wind_Direction
299 300 301 302 303 304 305 305 305 305 305 304 304 303 303 303 302 301 301 301 301 301 301 302 302 302 302 301 301 300 299 299 299 299 299 299 299 298 298 298 297 297 297 296 296 295 294 294 294 294 294 294 294 294 294 294 295 296 296 297 298 299 300 301 303 304 304 304 304 304 304 305 307 308 308 308 308 307 307 307 307 306 307 307 307
299 300 301 302 304 305 305 306 306 306 305 305 304 304 303 303 302 301 300 300 300 301 301 302 302 302 302 301 301 300 300 300 299 299 299 298 298 298 297 297 297 297 297 296 295 295 294 294 294 294 294 295 295 295 295 295 295 296 296 297 298 299 300 302 303 304 304 304 304 304 305 307 309 309 309 309 308 308 308 308 308 308 309 309 309
299 301 302 303 304 305 306 306 306 305 305 305 305 304 303 302 301 300 300 300 300 301 302 302 302 302 301 300 300 300 299 298 298 298 297 297 297 297 297 297 297 296 296 295 295 295 295 295 295 295 296 296 296 296 296 296 297 297 298 298 299 300 301 302 303 304 304 304 305 306 308 310 311 310 310 310 310 309 309 309 310 310 311 311 311
298 300 301 303 304 305 306 306 305 305 305 305 304 303 302 302 301 300 300 300 300 301 301 301 301 301 300 299 298 298 297 297 297 297 296 296 296 296 296 296 295 295 295 295 296 296 296 296 296 296 297 297 298 297 298 298 299 299 300 301 302 303 304 305 305 305 306 306 308 310 311 312 312 311 311 311 311 310 310 311 312 312 312 312 312
297 299 301 303 304 304 305 305 305 305 304 304 303 302 302 301 301 300 299 299 300 301 301 300 300 299 297 296 296 296 296 296 296 296 295 295 295 295 295 294 295 295 296 296 296 297 297 297 297 297 298 299 299 299 299 300 301 302 303 304 306 307 307 307 307 307 308 310 311 313 313 313 313 312 312 311 311 311 312 313 314 314 313 313 313
298 300 301 302 303 303 304 304 304 303 302 302 302 301 301 301 301 300 299 299 299 300 300 299 298 296 295 295 295 295 295 295 295 294 294 294 294 294 294 295 295 296 296 297 297 297 297 298 298 298 299 300 300 301 302 302 303 304 306 307 308 309 309 308 308 309 311 312 313 314 314 314 313 312 311 311 312 313 314 315 314 314 314 314 313
298 299 300 301 301 302 302 302 302 301 301 301 300 300 300 301 301 300 298 297 297 298 298 297 295 295 294 294 294 294 293 293 293 293 293 293 294 295 296 296 296 297 297 297 298 298 298 299 299 300 302 302 303 303 304 305 306 307 308 308 309 309 309 310 310 311 312 313 314 315 315 314 313 312 312 313 314 315 315 315 315 314 314 314 314
297 298 299 299 299 300 300 300 300 300 299 299 299 299 299 300 300 299 297 296 296 296 295 295 294 294 293 293 293 292 292 292 292 292 293 294 295 296 296 297 297 298 298 299 299 300 301 301 302 303 304 305 305 305 305 306 307 308 309 310 311 311 311 312 312 313 313 315 315 315 315 313 312 312 313 314 315 315 315 315 315 314 314 314 314
295 296 297 297 298 298 298 298 298 298 298 298 298 298 298 298 298 297 295 294 294 294 294 293 293 293 292 292 292 291 291 291 291 292 293 294 296 296 297 298 299 300 300 300 301 302 302 303 304 305 306 306 306 307 307 308 309 310 311 312 312 313 313 313 313 314 314 315 315 315 314 313 312 313 314 315 315 315 315 315 315 314 314 314 313
293 295 295 296 297 297 297 297 297 296 296 296 297 297 297 297 296 294 293 292 292 292 292 292 292 292 292 291 291 290 290 290 291 292 293 295 296 297 298 300 300 301 302 302 303 303 304 304 305 306 307 307 307 308 309 310 310 311 312 313 314 314 314 314 314 314 314 314 314 314 313 312 313 314 315 315 315 315 315 315 314 314 314 314 313
293 294 295 295 296 296 295 295 294 294 295 295 296 296 296 295 293 292 290 290 290 291 291 291 291 291 291 290 289 289 290 290 291 292 294 295 297 298 299 300 301 302 303 304 304 304 304 305 306 307 307 308 308 309 310 310 311 312 313 314 315 315 315 314 314 314 313 313 313 313 312 313 314 314 315 315 314 314 315 314 314 314 314 313 312
293 294 295 295 295 294 293 293 293 293 294 295 295 295 294 293 291 289 289 288 289 290 290 290 290 290 289 289 289 289 290 291 292 293 295 296 297 298 299 301 302 303 304 305 305 305 306 306 308 309 309 309 310 311 311 312 313 314 316 316 315 314 313 313 313 312 312 313 312 312 312 313 314 314 314 314 314 314 314 314 314 314 313 313 312
294 294 295 294 293 292 291 291 291 292 293 294 294 293 292 290 288 288 287 287 288 289 289 290 289 288 288 288 288 289 291 292 293 295 295 296 297 298 300 301 302 303 305 306 306 307 308 309 311 312 313 313 313 314 314 315 316 316 316 315 313 312 312 311 311 311 312 312 312 312 313 313 314 314 314 313 313 314 314 313 313 314 313 313 312
294 294 293 293 292 291 290 290 291 292 293 293 292 291 289 287 287 286 286 286 287 288 288 289 288 288 287 288 289 290 292 293 295 296 296 297 298 299 300 302 303 304 306 308 309 310 311 313 314 315 315 315 315 315 315 315 315 314 313 312 311 310 310 310 310 310 311 311 312 312 313 313 313 313 313 313 313 313 313 313 313 314 313 312 311
293 292 292 291 290 290 290 290 291 291 291 290 289 288 287 286 286 285 285 285 286 287 288 288 288 288 288 289 290 291 293 294 296 297 297 298 299 300 302 303 304 306 308 311 312 313 314 315 315 314 314 314 314 313 314 314 313 312 311 310 309 309 309 308 309 309 310 311 312 312 312 312 312 312 313 313 313 313 313 313 313 313 312 311 310
291 290 290 289 289 289 288 289 289 288 288 287 287 286 285 285 285 284 284 285 286 287 287 287 288 289 289 290 291 293 294 296 297 298 299 300 301 302 303 304 306 308 311 313 313 313 314 314 314 313 313 312 312 312 312 311 311 310 309 308 308 308 307 307 308 310 311 311 312 312 312 312 312 312 312 312 312 313 313 313 312 311 310 309 309
289 288 288 288 287 287 286 286 286 286 286 286 285 284 284 284 284 285 285 285 286 286 287 287 288 289 290 291 292 294 295 297 299 300 300 301 302 303 304 306 309 311 313 313 313 313 313 313 312 312 311 310 310 310 310 309 309 308 307 307 307 307 307 308 309 310 310 311 311 311 311 311 311 311 311 311 312 312 312 311 311 310 309 308 308
287 287 286 285 285 284 284 284 284 284 285 285 284 284 285 285 285 286 286 286 286 286 287 287 288 289 290 292 293 295 297 298 300 300 301 301 303 305 307 309 311 313 313 312 312 312 312 311 310 310 309 308 308 308 308 307 307 306 306 306 306 306 307 308 309 309 309 310 310 310 310 310 310 310 311 311 312 312 311 310 309 309 308 308 309
285 284 283 283 282 282 282 282 283 284 285 285 284 284 285 285 285 286 286 286 286 287 287 288 289 290 291 293 295 296 298 299 300 301 302 304 306 308 309 311 312 312 311 311 311 311 310 309 308 307 307 306 306 306 306 306 305 305 305 305 306 306 307 308 308 308 309 309 309 309 310 310 310 310 311 311 311 310 310 309 309 308 309 309 310
283 282 281 281 280 280 281 282 283 284 284 284 284 284 285 285 286 286 286 287 287 288 288 289 290 291 293 294 296 297 299 300 302 304 305 306 308 309 310 311 311 310 309 309 309 308 307 306 305 305 305 305 305 305 304 304 304 304 304 305 305 306 307 307 307 308 308 308 308 309 309 309 309 310 310 310 310 309 309 309 309 309 310 310 311
282 281 281 280 279 279 280 281 282 283 283 284 284 285 285 286 287 287 288 288 288 289 290 291 292 294 295 296 297 298 299 301 303 304 306 307 308 309 309 309 308 307 307 306 306 305 304 304 304 304 304 304 303 303 303 303 303 303 304 305 305 306 306 307 307 307 307 307 308 308 308 309 309 309 309 309 309 309 309 309 309 310 310 311 312
280 280 280 279 279 279 279 280 281 282 282 283 284 285 286 286 287 288 288 288 289 290 292 293 295 296 296 296 297 298 299 301 303 305 306 307 308 308 307 306 305 305 305 304 304 303 303 303 303 303 303 302 302 302 302 302 303 304 304 305 305 306 306 306 306 306 306 307 307 307 308 308 309 309 308 308 308 308 308 309 309 310 311 312 313
279 279 279 278 278 278 278 279 280 280 281 282 283 285 286 286 287 288 288 290 291 292 293 294 295 295 296 297 298 300 302 303 305 306 306 306 305 305 304 303 303 303 303 302 302 302 302 302 302 301 301 301 301 301 302 303 304 304 304 305 305 305 305 305 305 305 305 306 306 307 308 308 308 307 307 307 307 307 308 308 309 310 311 312 313
277 277 277 277 277 277 278 278 279 280 281 282 284 285 286 286 287 288 289 290 291 292 293 294 295 297 299 301 302 303 304 305 305 304 304 303 302 302 302 301 301 301 301 301 301 301 301 301 300 300 300 300 301 302 303 303 303 304 304 304 304 304 304 304 304 305 305 306 306 307 307 306 306 306 306 306 306 307 307 309 310 311 311 312 313
276 276 276 277 277 278 278 279 280 281 283 284 285 286 286 287 288 288 289 290 292 293 295 297 299 301 302 303 303 303 303 302 302 301 301 300 300 300 300 300 300 300 300 300 300 300 300 300 300 300 300 301 302 302 302 302 302 303 303 303 303 303 303 303 304 304 305 305 306 306 305 305 305 305 305 305 306 307 308 309 310 311 312 312 313
277 277 278 278 279 280 280 281 282 283 285 286 287 288 288 289 290 291 292 294 296 297 299 300 301 302 302 302 301 301 300 300 299 299 299 299 299 299 299 300 300 300 300 300 299 299 299 299 300 300 301 301 301 301 301 301 301 302 302 302 302 302 303 303 304 305 305 305 305 305 305 305 305 305 305 306 307 308 309 310 311 311 311 312 313
279 279 280 280 281 282 283 283 284 285 286 287 288 289 291 292 293 295 296 298 299 300 300 301 300 300 299 299 299 299 299 299 299 299 299 299 299 299 299 299 299 299 299 299 299 299 299 299 299 300 300 300 300 300 300 300 300 301 301 301 301 302 303 303 304 304 305 305 305 305 305 305 305 305 306 307 308 309 310 311 311 311 311 312 313
280 281 281 282 282 283 284 285 285 286 287 288 290 292 293 295 296 298 298 299 299 299 299 298 298 298 298 298 298 298 298 298 298 299 299 299 299 298 298 298 298 298 298 298 299 299 299 299 299 299 299 299 299 299 299 299 300 300 300 301 302 302 303 303 304 304 304 304 304 304 304 304 305 305 306 308 309 310 310 311 311 311 312 313 313
282 282 283 283 284 284 285 285 286 287 288 290 292 294 295 297 298 298 298 298 298 297 297 297 297 297 297 297 298 298 298 298 298 298 298 298 298 298 298 298 298 298 298 298 299 299 299 299 299 298 298 298 298 298 298 299 299 300 301 301 302 302 302 302 302 302 303 303 303 303 304 304 305 306 307 308 309 310 311 311 311 311 312 313 313
284 284 285 285 286 286 287 288 289 290 291 293 294 295 296 297 297 297 296 296 296 296 296 296 296 297 297 297 297 297 297 297 297 297 297 297 297 297 297 297 297 298 298 298 298 298 297 297 297 297 297 297 297 298 298 299 299 300 300 300 300 300 301 301 301 301 301 302 302 303 304 304 305 306 307 309 310 311 311 311 311 312 313 313 312
288 288 289 290 290 291 292 293 294 294 295 295 295 295 295 295 295 295 295 295 295 295 295 296 296 296 297 297 297 297 296 296 296 296 296 296 296 297 297 297 297 297 297 297 297 296 296 296 296 296 297 297 297 298 298 299 299 299 299 299 299 299 300 300 300 300 301 301 302 303 304 304 305 307 308 309 310 311 311 310 311 312 313 312 312
292 293 293 294 294 294 295 295 295 295 294 294 294 293 293 293 293 294 294 294 295 295 295 295 296 296 296 296 296 295 295 295 295 296 296 296 296 296 296 297 296 296 296 296 295 295 295 296 296 296 296 297 297 298 298 298 298 298 298 298 299 299 299 300 300 300 301 301 302 303 304 305 306 307 309 310 310 310 310 310 311 312 312 312 312
294 294 294 294 294 294 293 293 293 293 292 292 292 292 293 293 293 293 294 294 294 294 295 295 295 295 295 295 295 295 295 295 295 295 296 296 295 295 295 295 295 295 295 295 295 295 295 295 296 296 296 296 297 297 297 297 297 298 298 298 298 299 299 299 300 300 301 302 303 303 304 305 307 308 309 309 310 310 310 310 311 312 312 312 311
292 292 291 291 291 291 291 291 291 291 291 291 291 291 292 292 292 292 293 293 293 293 293 294 294 294 294 294 294 294 294 294 294 294 294 294 294 294 294 294 294 294 294 294 295 295 295 295 296 296 296 296 297 297 297 297 297 298 298 298 299 299 299 300 300 301 302 303 303 304 305 306 307 308 309 309 309 309 310 311 311 312 311 311 311
289 289 289 289 289 289 289 289 289 290 290 290 290 290 290 291 291 291 291 292 292 292 292 292 292 293 293 293 293 293 293 293 293 293 293 293 293 293 294 294 294 294 294 294 295 295 295 295 296 296 296 296 297 297 297 297 298 298 298 299 299 299 300 300 301 302 303 303 304 305 306 307 308 309 309 309 309 310 310 311 311 311 311 310 310
288 288 288 288 288 288 288 288 288 289 289 289 289 289 290 290 290 291 291 291 291 291 291 291 291 291 292 292 292 292 292 292 292 292 292 293 293 293 293 294 294 294 294 294 295 295 295 295 296 296 296 296 297 297 297 297 298 298 298 299 299 300 300 301 302 302 303 304 305 306 307 308 308 308 309 309 310 310 310 311 311 310 310 310 311
287 288 288 288 288 288 288 288 288 288 289 289 289 289 289 290 290 290 290 290 290 291 291 291 291 291 291 291 291 291 291 292 292 292 292 292 293 293 293 293 294 294 294 294 294 295 295 295 296 296 296 297 297 297 297 298 298 299 299 299 299 300 301 302 302 303 304 305 306 307 307 307 308 308 309 310 309 309 310 310 310 310 310 310 311
286 286 287 287 287 287 287 287 288 288 288 288 289 289 289 289 289 290 290 290 290 290 290 291 291 291 291 291 291 291 292 292 292 292 292 292 293 293 293 293 294 294 294 294 295 295 295 296 296 296 297 297 297 298 298 298 299 299 299 299 300 301 301 302 303 303 304 305 306 306 306 307 307 308 309 309 309 309 309 309 309 309 310 310 311
285 285 285 286 286 286 287 287 288 288 288 288 288 289 289 289 289 290 290 290 290 290 290 290 290 290 290 291 291 291 291 292 292 292 292 292 293 293 293 293 294 294 294 294 295 295 295 295 296 296 296 297 297 298 298 298 299 299 299 300 300 301 301 302 303 303 304 305 305 305 306 306 307 308 308 308 308 308 309 309 309 309 309 310 310
284 285 285 285 286 286 287 287 287 287 288 288 288 288 289 289 289 289 289 289 289 290 290 290 290 290 290 291 291 291 291 291 292 292 292 292 293 293 293 293 293 294 294 294 294 295 295 295 295 295 296 296 297 297 298 298 298 298 299 300 300 301 301 302 303 304 304 304 305 305 305 306 307 307 307 307 307 308 308 308 308 309 309 309 310
284 285 285 285 285 286 286 286 286 287 287 287 288 288 288 288 288 288 289 289 289 290 290 290 290 290 291 291 291 291 291 291 291 292 292 292 292 292 292 292 292 293 293 293 294 294 294 294 295 295 296 296 297 297 297 297 298 299 299 300 300 301 302 303 303 303 304 304 304 305 305 306 306 306 306 307 307 307 308 308 308 309 309 309 309
284 284 284 285 285 285 285 286 286 286 287 287 287 287 287 288 288 289 289 289 290 290 290 290 290 290 291 291 291 291 291 291 291 291 291 291 291 291 292 292 292 292 292 293 293 293 293 294 294 295 295 296 296 296 297 298 298 299 299 300 301 301 302 302 302 303 303 303 304 304 304 305 305 306 306 306 307 307 307 307 308 308 308 309 309
283 283 284 284 284 285 285 285 286 286 286 287 287 287 287 288 288 289 289 289 290 290 290 290 290 290 290 290 290 290 291 291 291 291 291 291 291 291 291 291 291 292 292 292 292 292 292 293 294 294 295 295 296 297 297 298 298 299 299 300 301 301 301 301 302 302 302 303 303 303 304 304 305 305 306 306 306 307 307 307 307 307 308 308 308
283 283 284 284 285 285 286 286 286 286 287 287 287 287 288 288 289 289 289 290 290 290 290 290 290 290 290 290 290 290 290 290 290 290 290 290 290 290 290 290 291 291 291 291 291 292 292 293 293 294 295 296 296 297 297 298 298 299 300 300 300 300 300 300 301 301 302 302 302 303 303 304 304 305 305 306 306 306 306 306 307 307 307 307 307
283 284 284 285 285 286 286 286 287 287 287 287 288 288 288 289 289 289 289 289 290 290 289 289 290 290 290 290 290 290 290 290 290 290 290 289 289 289 289 289 289 290 290 290 291 291 292 293 294 295 295 296 296 297 297 298 299 299 299 299 299 299 299 300 300 301 301 301 302 302 303 303 304 304 305 305 305 306 306 306 306 306 307 307 307
284 284 285 285 285 285 286 286 287 287 287 287 288 288 288 288 289 289 289 289 289 289 289 289 289 290 290 290 290 290 290 289 289 289 289 289 289 288 288 289 289 289 290 290 291 292 293 293 294 295 295 296 296 297 297 298 298 298 298 298 298 298 299 299 300 300 301 301 301 302 303 303 303 304 304 305 305 305 305 305 305 306 306 306 306
285 285 285 285 286 286 286 286 286 286 287 287 287 287 288 288 288 288 288 289 289 289 289 289 289 290 289 289 289 289 289 289 288 288 288 288 288 288 288 288 289 289 290 291 292 293 293 294 294 295 295 296 296 296 296 296 296 296 296 297 298 298 298 299 299 300 300 301 301 302 302 302 303 304 304 304 304 305 305 305 305 305 305 305 305
284 285 285 285 285 285 285 286 286 286 286 287 287 287 287 287 287 288 288 288 289 289 289 289 289 289 289 288 288 288 288 287 287 287 287 288 288 288 289 289 290 290 291 292 293 293 293 294 294 294 295 295 295 295 295 295 295 296 296 297 297 298 298 299 299 300 300 301 301 301 301 302 303 303 303 303 303 304 304 304 304 304 304 305 305
284 284 284 284 284 285 285 285 286 286 286 287 287 287 287 287 288 288 288 288 289 289 289 289 289 288 288 288 288 287 287 287 287 288 288 288 289 289 290 290 291 291 292 292 292 293 293 293 294 294 295 295 295 294 294 295 295 296 297 297 298 298 299 299 300 300 300 300 300 300 301 302 302 302 302 302 302 303 303 303 303 303 303 304 304
283 284 284 284 285 285 286 286 287 287 287 288 288 288 289 289 289 289 289 289 289 289 289 289 288 288 288 288 287 287 287 288 288 288 288 289 289 289 290 290 290 291 291 291 292 292 293 293 294 294 294 294 294 294 294 295 296 296 297 297 298 299 299 299 299 299 300 300 300 300 300 300 300 301 301 301 301 302 302 302 302 302 302 303 303
284 284 284 285 285 286 286 287 287 288 288 288 289 289 289 289 289 289 289 289 288 288 288 288 287 287 287 287 287 287 287 288 288 288 288 289 289 289 289 290 290 291 291 292 292 293 293 293 293 293 293 293 294 294 295 296 296 297 298 298 298 299 299 299 299 299 299 299 299 299 299 299 299 299 300 300 300 301 301 301 301 301 302 302 301
Height
10648 10645 10642 10640 10637 10634 10632 10630 10627 10624 10621 10619 10616 10614 10611 10608 10605 10602 10600 10597 10595 10592 10589 10586 10583 10580 10578 10575 10572 10569 10567 10564 10562 10559 10556 10553 10550 10548 10545 10542 10539 10536 10533 10530 10527 10523 10519 10516 10512 10508 10503 10500 10496 10492 10487 10483 10479 10474 10467 10462 10457 10452 10446 10440 10433 10425 10419 10414 10408 10400 10392 10385 10378 10371 10363 10354 10344 10335 10326 10317 10309 10300 10291 10282 10271
10640 10638 10634 10632 10630 10627 10625 10622 10620 10617 10613 10611 10609 10606 10604 10601 10598 10595 10592 10590 10588 10585 10582 10579 10576 10573 10571 10568 10565 10562 10560 10557 10554 10551 10549 10546 10543 10540 10538 10534 10531 10528 10525 10522 10518 10515 10511 10507 10503 10499 10495 10491 10486 10482 10477 10473 10470 10464 10458 10452 10446 10441 10435 10429 10421 10414 10406 10400 10394 10387 10379 10372 10364 10356 10349 10341 10330 10321 10313 10304 10295 10287 10278 10269 10259
10632 10629 10626 10624 10622 10620 10617 10615 10613 10610 10606 10603 10601 10598 10596 10593 10590 10588 10585 10583 10581 10578 10575 10572 10569 10566 10563 10561 10558 10555 10553 10550 10547 10544 10541 10538 10535 10533 10530 10527 10523 10520 10517 10513 10510 10506 10502 10498 10494 10489 10485 10481 10476 10470 10465 10462 10458 10453 10447 10441 10435 10429 10423 10416 10409 10402 10393 10385 10378 10373 10366 10359 10350 10342 10335 10326 10316 10308 10300 10291 10282 10273 10265 10256 10246
10623 10621 10618 10616 10614 10612 10610 10607 10604 10602 10599 10596 10593 10590 10588 10585 10582 10580 10578 10575 10573 10571 10567 10564 10561 10559 10556 10553 10551 10548 10545 10542 10539 10536 10533 10530 10528 10525 10522 10519 10515 10512 10508 10504 10500 10497 10492 10487 10483 10479 10475 10471 10465 10459 10453 10449 10445 10440 10435 10428 10422 10416 10409 10402 10395 10388 10379 10369 10362 10358 10353 10345 10336 10327 10320 10312 10303 10295 10288 10279 10269 10260 10252 10243 10233
10614 10613 10611 10608 10606 10603 10601 10598 10596 10594 10591 10588 10585 10582 10580 10577 10574 10572 10570 10568 10566 10563 10560 10557 10554 10551 10548 10546 10543 10541 10538 10534 10531 10528 10525 10522 10520 10517 10514 10510 10507 10503 10499 10495 10491 10487 10482 10477 10472 10468 10464 10459 10453 10446 10441 10436 10432 10428 10422 10415 10409 10402 10394 10387 10379 10371 10363 10355 10348 10343 10338 10330 10320 10311 10305 10299 10292 10283 10274 10265 10255 10247 10240 10231 10220
10606 10604 10603 10600 10597 10594 10592 10590 10588 10585 10582 10580 10577 10575 10572 10569 10567 10565 10562 10560 10558 10555 10552 10549 10546 10543 10541 10538 10536 10533 10530 10526 10523 10520 10517 10514 10511 10509 10506 10502 10498 10494 10490 10485 10481 10476 10471 10465 10461 10457 10453 10447 10440 10434 10428 10423 10419 10414 10408 10402 10396 10388 10380 10372 10364 10355 10347 10340 10335 10330 10322 10314 10305 10297 10291 10285 10278 10269 10262 10254 10243 10233 10226 10218 10208
10599 10597 10595 10592 10589 10586 10583 10581 10579 10576 10574 10572 10569 10567 10564 10561 10559 10557 10554 10552 10549 10547 10544 10541 10538 10536 10533 10531 10528 10525 10522 10518 10515 10512 10508 10505 10503 10500 10497 10493 10489 10485 10480 10475 10471 10466 10460 10454 10448 10444 10440 10433 10426 10420 10415 10409 10405 10400 10395 10389 10382 10374 10365 10357 10348 10340 10333 10326 10320 10315 10309 10299 10290 10284 10277 10269 10262 10255 10248 10242 10234 10223 10213 10204 10194
10593 10590 10588 10584 10580 10578 10575 10572 10570 10567 10566 10564 10561 10559 10556 10554 10551 10549 10546 10544 10541 10539 10536 10533 10531 10528 10525 10523 10520 10517 10513 10510 10506 10502 10499 10496 10494 10491 10487 10483 10479 10475 10469 10464 10459 10454 10448 10442 10436 10430 10425 10419 10412 10406 10401 10395 10391 10385 10380 10374 10367 10358 10350 10341 10333 10325 10318 10312 10306 10301 10295 10286 10276 10269 10262 10253 10247 10241 10234 10228 10222 10212 10203 10193 10181
10585 10582 10580 10576 10572 10570 10567 10564 10562 10559 10557 10555 10553 10551 10548 10545 10543 10541 10538 10535 10533 10530 10528 10525 10522 10520 10517 10515 10512 10508 10505 10501 10497 10493 10490 10487 10484 10480 10477 10473 10469 10464 10458 10452 10447 10442 10436 10429 10423 10417 10410 10404 10398 10392 10387 10381 10376 10371 10366 10359 10351 10342 10333 10325 10317 10310 10304 10298 10293 10288 10281 10271 10262 10256 10247 10239 10233 10228 10221 10214 10207 10199 10192 10183 10170
10576 10574 10572 10568 10564 10561 10558 10556 10554 10551 10549 10547 10544 10542 10540 10537 10535 10532 10530 10527 10524 10522 10520 10517 10514 10511 10509 10506 10503 10499 10495 10491 10487 10484 10481 10478 10474 10470 10466 10462 10458 10452 10446 10440 10434 10428 10422 10416 10410 10403 10396 10389 10384 10378 10372 10366 10361 10357 10352 10344 10335 10326 10317 10309 10302 10296 10290 10285 10280 10274 10266 10257 10249 10242 10234 10226 10219 10214 10208 10202 10194 10186 10179 10172 10161
10567 10564 10562 10559 10556 10552 10549 10547 10545 10543 10541 10538 10536 10533 10531 10529 10526 10523 10521 10518 10516 10514 10511 10508 10505 10502 10500 10497 10493 10490 10485 10481 10477 10474 10471 10467 10463 10459 10455 10451 10446 10441 10434 10428 10421 10415 10409 10403 10397 10389 10380 10374 10369 10364 10358 10352 10347 10342 10336 10328 10319 10310 10302 10294 10288 10282 10277 10273 10267 10259 10250 10242 10235 10227 10221 10214 10206 10200 10195 10188 10180 10173 10166 10159 10151
10557 10554 10551 10549 10547 10543 10540 10538 10536 10534 10532 10530 10528 10525 10522 10520 10516 10513 10511 10509 10507 10505 10502 10499 10496 10494 10491 10488 10484 10480 10475 10470 10467 10463 10459 10455 10452 10448 10443 10439 10434 10428 10421 10415 10408 10401 10394 10388 10382 10374 10365 10359 10353 10348 10342 10336 10330 10325 10318 10312 10304 10296 10288 10281 10275 10269 10264 10260 10253 10243 10234 10228 10222 10215 10208 10202 10194 10188 10182 10175 10167 10161 10153 10145 10136
10547 10543 10539 10537 10536 10534 10531 10529 10527 10525 10523 10521 10519 10517 10514 10510 10507 10504 10502 10500 10498 10496 10493 10490 10487 10484 10481 10478 10475 10470 10465 10460 10456 10451 10447 10443 10440 10436 10431 10426 10421 10415 10408 10401 10394 10386 10380 10373 10367 10358 10350 10343 10336 10330 10325 10320 10315 10309 10303 10297 10291 10283 10276 10269 10261 10255 10251 10246 10238 10228 10219 10213 10208 10202 10195 10189 10183 10176 10169 10162 10154 10147 10140 10131 10121
10536 10532 10528 10526 10525 10523 10522 10520 10518 10515 10513 10511 10509 10507 10504 10501 10498 10495 10492 10490 10488 10486 10483 10480 10477 10474 10471 10468 10464 10460 10455 10449 10444 10440 10435 10431 10427 10424 10419 10413 10407 10401 10394 10386 10378 10371 10364 10358 10352 10344 10336 10329 10322 10316 10311 10307 10303 10298 10292 10285 10278 10271 10265 10257 10249 10245 10240 10232 10223 10214 10205 10198 10193 10188 10182 10175 10170 10163 10155 10148 10141 10134 10127 10118 10109
10525 10521 10518 10516 10514 10512 10511 10511 10509 10506 10503 10500 10499 10497 10494 10491 10489 10486 10483 10480 10478 10476 10473 10469 10466 10463 10460 10457 10453 10449 10444 10438 10433 10428 10423 10418 10414 10410 10405 10399 10393 10387 10379 10372 10364 10358 10351 10346 10339 10332 10325 10318 10310 10304 10301 10297 10293 10287 10280 10273 10266 10259 10252 10244 10238 10234 10227 10217 10209 10201 10192 10185 10179 10174 10168 10161 10155 10149 10141 10134 10128 10122 10115 10108 10099
10513 10509 10508 10507 10505 10502 10501 10501 10500 10497 10493 10490 10488 10486 10483 10481 10479 10476 10474 10471 10469 10466 10462 10458 10455 10452 10448 10445 10441 10437 10433 10427 10421 10416 10410 10406 10401 10397 10392 10386 10380 10373 10366 10359 10352 10346 10340 10334 10327 10321 10314 10307 10299 10294 10290 10287 10282 10276 10268 10261 10254 10247 10239 10231 10225 10220 10211 10203 10196 10188 10180 10173 10166 10160 10154 10148 10143 10136 10128 10121 10116 10111 10104 10097 10091
10502 10500 10499 10498 10495 10493 10491 10489 10488 10486 10484 10480 10477 10475 10473 10472 10469 10467 10464 10462 10459 10456 10452 10449 10445 10442 10438 10433 10429 10426 10421 10416 10410 10404 10398 10393 10388 10383 10378 10373 10367 10362 10355 10348 10341 10335 10329 10322 10315 10309 10303 10295 10289 10284 10279 10275 10270 10264 10256 10249 10242 10235 10226 10218 10211 10204 10197 10191 10184 10176 10168 10161 10153 10147 10142 10136 10130 10125 10118 10112 10105 10099 10092 10084 10078
10493 10491 10490 10487 10485 10483 10480 10478 10477 10475 10473 10471 10468 10465 10464 10462 10460 10457 10454 10451 10448 10445 10442 10439 10436 10432 10428 10423 10418 10414 10410 10405 10399 10392 10385 10380 10376 10371 10366 10361 10356 10350 10344 10337 10330 10324 10318 10310 10303 10297 10291 10284 10278 10273 10268 10263 10257 10250 10244 10237 10230 10222 10213 10205 10199 10191 10185 10179 10172 10164 10157 10150 10142 10136 10130 10122 10116 10110 10104 10099 10092 10084 10078 10069 10062
10483 10481 10480 10477 10475 10473 10470 10468 10465 10463 10462 10461 10458 10456 10454 10452 10449 10447 10443 10440 10437 10433 10430 10428 10424 10421 10417 10412 10407 10403 10398 10394 10387 10379 10372 10367 10364 10359 10355 10350 10345 10338 10332 10325 10320 10315 10308 10301 10293 10287 10280 10274 10268 10262 10257 10250 10244 10237 10230 10223 10216 10209 10201 10194 10187 10180 10173 10167 10160 10152 10145 10138 10130 10123 10116 10109 10102 10096 10090 10084 10077 10070 10063 10055 10046
10472 10470 10469 10468 10465 10463 10460 10457 10455 10452 10450 10449 10447 10446 10443 10441 10438 10436 10432 10429 10425 10422 10419 10416 10413 10409 10405 10401 10396 10391 10387 10382 10375 10368 10360 10356 10352 10348 10343 10339 10333 10327 10321 10315 10311 10305 10298 10291 10283 10277 10270 10263 10256 10250 10244 10237 10231 10225 10217 10210 10203 10196 10189 10182 10175 10168 10161 10155 10148 10141 10134 10127 10119 10111 10104 10097 10091 10084 10078 10070 10063 10055 10047 10039 10032
10460 10459 10459 10458 10455 10453 10450 10447 10444 10441 10438 10437 10435 10434 10432 10429 10427 10424 10420 10417 10414 10411 10408 10404 10400 10397 10393 10388 10383 10378 10374 10369 10362 10355 10349 10344 10340 10337 10333 10329 10323 10317 10312 10307 10302 10295 10287 10280 10272 10264 10257 10249 10243 10236 10230 10224 10219 10212 10205 10197 10189 10183 10176 10169 10162 10156 10150 10143 10137 10130 10123 10116 10108 10099 10092 10085 10077 10071 10064 10056 10048 10041 10032 10024 10018
10449 10448 10448 10446 10445 10442 10439 10436 10433 10429 10427 10425 10423 10422 10420 10418 10414 10410 10407 10404 10401 10398 10395 10390 10387 10383 10379 10375 10370 10365 10360 10355 10349 10344 10339 10334 10330 10326 10323 10318 10313 10307 10303 10298 10291 10284 10276 10268 10261 10253 10244 10236 10229 10223 10216 10210 10204 10198 10190 10183 10176 10169 10163 10157 10151 10145 10139 10132 10126 10120 10112 10104 10097 10089 10081 10073 10065 10058 10051 10044 10036 10028 10020 10012 10005
10439 10438 10436 10434 10433 10430 10427 10425 10421 10418 10416 10413 10411 10410 10408 10405 10401 10397 10393 10390 10387 10384 10380 10376 10372 10368 10364 10360 10355 10350 10346 10342 10337 10333 10328 10323 10319 10316 10311 10307 10302 10297 10292 10286 10278 10271 10263 10257 10249 10241 10232 10223 10215 10208 10201 10194 10188 10182 10176 10170 10163 10157 10150 10144 10139 10134 10128 10121 10114 10108 10101 10094 10087 10080 10072 10064 10057 10049 10041 10034 10026 10018 10009 10002 9994
10428 10426 10424 10422 10420 10418 10415 10413 10409 10407 10404 10401 10399 10397 10394 10391 10387 10383 10380 10376 10372 10369 10365 10361 10358 10354 10349 10344 10340 10336 10333 10329 10325 10321 10317 10312 10308 10304 10300 10296 10291 10285 10279 10273 10265 10257 10250 10243 10236 10227 10218 10209 10201 10193 10185 10178 10172 10167 10162 10157 10151 10144 10137 10131 10126 10121 10116 10110 10104 10097 10091 10084 10078 10071 10064 10056 10048 10040 10032 10025 10017 10008 10000 9992 9984
10415 10413 10410 10408 10406 10404 10402 10400 10397 10394 10391 10387 10385 10382 10379 10376 10372 10368 10365 10361 10357 10354 10350 10346 10344 10340 10336 10331 10327 10323 10321 10318 10315 10311 10306 10301 10296 10291 10286 10281 10276 10270 10264 10257 10250 10243 10235 10228 10220 10212 10203 10195 10187 10179 10171 10165 10159 10154 10148 10143 10137 10131 10124 10117 10112 10107 10102 10097 10091 10086 10080 10073 10066 10059 10052 10045 10037 10029 10021 10015 10007 9998 9990 9983 9975
10402 10399 10396 10394 10392 10389 10388 10386 10383 10381 10377 10373 10371 10367 10364 10361 10357 10353 10350 10346 10342 10339 10336 10333 10330 10328 10324 10320 10315 10312 10308 10305 10301 10297 10292 10288 10282 10276 10270 10264 10258 10253 10247 10241 10234 10227 10219 10212 10204 10196 10189 10182 10175 10167 10160 10153 10147 10141 10135 10129 10123 10117 10110 10104 10098 10092 10087 10082 10077 10072 10066 10059 10052 10044 10037 10031 10023 10015 10008 10001 9994 9986 9979 9972 9966
10387 10384 10382 10380 10377 10375 10374 10371 10369 10366 10362 10359 10356 10352 10349 10345 10341 10338 10334 10331 10328 10325 10322 10320 10318 10315 10311 10307 10302 10298 10293 10288 10284 10279 10275 10270 10264 10258 10252 10247 10241 10236 10230 10224 10218 10211 10204 10197 10190 10183 10177 10170 10163 10155 10149 10142 10135 10129 10123 10116 10110 10104 10098 10091 10084 10077 10072 10067 10062 10056 10050 10043 10036 10029 10022 10016 10008 10001 9995 9988 9981 9974 9967 9961 9954
10372 10369 10367 10365 10363 10361 10359 10356 10353 10350 10346 10343 10340 10337 10333 10330 10326 10323 10320 10317 10315 10313 10310 10307 10304 10300 10297 10292 10287 10282 10276 10270 10266 10261 10257 10252 10246 10240 10235 10230 10225 10219 10213 10208 10202 10195 10188 10181 10175 10169 10164 10158 10151 10144 10137 10131 10124 10117 10110 10103 10096 10090 10084 10078 10072 10065 10059 10053 10048 10042 10035 10029 10022 10015 10009 10003 9996 9989 9983 9976 9969 9962 9955 9949 9941
10356 10354 10352 10350 10347 10345 10343 10340 10337 10334 10331 10328 10325 10321 10318 10315 10312 10309 10307 10304 10302 10299 10295 10291 10287 10284 10281 10277 10271 10266 10260 10254 10249 10245 10241 10235 10229 10224 10219 10213 10208 10202 10196 10191 10186 10179 10173 10166 10161 10156 10150 10145 10139 10132 10126 10119 10112 10105 10098 10090 10083 10077 10072 10067 10061 10055 10049 10042 10036 10029 10022 10016 10009 10003 9996 9990 9984 9977 9970 9963 9956 9950 9943 9936 9929
10339 10337 10335 10333 10330 10328 10326 10323 10320 10318 10315 10312 10310 10307 10304 10301 10299 10296 10293 10291 10287 10283 10279 10274 10270 10267 10264 10260 10255 10249 10243 10238 10233 10230 10225 10219 10213 10208 10203 10197 10192 10187 10181 10176 10171 10165 10159 10154 10149 10144 10138 10132 10126 10120 10114 10108 10101 10095 10088 10081 10074 10068 10062 10057 10051 10045 10039 10033 10025 10018 10010 10003 9997 9991 9984 9978 9971 9964 9957 9949 9943 9938 9931 9924 9918
10322 10320 10317 10315 10313 10311 10309 10307 10304 10302 10300 10298 10295 10293 10290 10288 10285 10282 10279 10276 10272 10267 10262 10257 10253 10250 10247 10243 10238 10233 10227 10222 10218 10214 10209 10203 10197 10192 10187 10181 10177 10172 10167 10162 10156 10151 10146 10141 10136 10131 10126 10120 10114 10107 10101 10095 10089 10083 10077 10071 10064 10058 10052 10046 10040 10034 10028 10022 10015 10007 9999 9992 9986 9980 9974 9967 9960 9952 9945 9938 9932 9926 9920 9912 9906
10305 10303 10301 10299 10297 10296 10293 10292 10289 10287 10285 10283 10280 10278 10275 10272 10269 10266 10263 10259 10255 10250 10245 10240 10236 10232 10229 10225 10220 10215 10209 10204 10200 10196 10191 10186 10181 10176 10171 10166 10161 10157 10152 10148 10142 10137 10132 10127 10122 10117 10112 10106 10100 10094 10088 10082 10076 10070 10065 10059 10053 10046 10039 10033 10027 10021 10015 10010 10004 9996 9989 9981 9975 9969 9963 9956 9949 9941 9934 9927 9921 9916 9909 9901 9895
10290 10288 10286 10284 10282 10281 10279 10277 10274 10272 10269 10266 10263 10260 10257 10254 10251 10248 10244 10241 10238 10233 10228 10223 10219 10215 10210 10206 10201 10196 10190 10186 10182 10178 10175 10170 10166 10161 10156 10152 10147 10142 10138 10133 10128 10123 10118 10113 10108 10103 10098 10092 10087 10081 10075 10069 10062 10056 10051 10045 10039 10033 10027 10020 10013 10006 10001 9997 9990 9984 9977 9970 9963 9958 9952 9945 9937 9929 9922 9915 9910 9904 9898 9891 9885
10276 10274 10272 10270 10268 10266 10264 10262 10260 10257 10254 10250 10247 10244 10241 10237 10234 10231 10227 10225 10221 10216 10211 10206 10202 10198 10193 10189 10184 10180 10175 10170 10166 10163 10159 10155 10151 10146 10142 10137 10132 10128 10123 10118 10113 10108 10103 10098 10093 10088 10083 10078 10073 10067 10061 10055 10049 10043 10037 10031 10025 10019 10013 10006 9999 9992 9986 9982 9976 9970 9963 9957 9951 9945 9939 9932 9924 9917 9910 9904 9898 9892 9886 9880 9875
10262 10259 10257 10255 10253 10251 10248 10246 10243 10241 10238 10235 10231 10228 10225 10221 10218 10215 10212 10209 10205 10200 10195 10190 10186 10183 10178 10173 10168 10164 10160 10156 10151 10148 10144 10139 10135 10131 10127 10122 10117 10113 10108 10103 10098 10093 10088 10083 10077 10072 10067 10062 10058 10052 10047 10041 10035 10029 10023 10016 10010 10004 9998 9992 9986 9978 9972 9966 9961 9955 9950 9943 9937 9931 9926 9919 9912 9904 9898 9892 9887 9881 9874 9868 9863
10244 10241 10239 10237 10235 10233 10230 10227 10225 10223 10220 10217 10214 10210 10207 10203 10200 10197 10194 10191 10187 10183 10179 10174 10170 10167 10162 10157 10153 10149 10145 10141 10136 10132 10128 10123 10119 10115 10111 10106 10102 10098 10093 10088 10083 10078 10073 10068 10062 10057 10052 10047 10042 10037 10032 10027 10021 10016 10009 10003 9996 9990 9984 9979 9972 9965 9958 9952 9946 9941 9935 9930 9923 9918 9912 9906 9899 9892 9886 9880 9875 9870 9864 9858 9853
10225 10222 10220 10218 10215 10213 10210 10207 10205 10203 10200 10197 10195 10191 10188 10185 10182 10179 10176 10172 10169 10165 10160 10156 10152 10148 10144 10140 10136 10132 10129 10125 10120 10115 10111 10107 10103 10100 10095 10091 10087 10082 10078 10073 10068 10062 10057 10052 10046 10041 10036 10032 10027 10022 10017 10012 10007 10001 9995 9988 9982 9976 9970 9965 9959 9952 9945 9938 9932 9927 9922 9917 9911 9905 9900 9894 9887 9881 9875 9870 9864 9859 9853 9848 9843
10207 10204 10202 10198 10196 10193 10190 10187 10185 10183 10180 10178 10175 10172 10169 10166 10163 10160 10157 10153 10150 10146 10142 10137 10134 10130 10125 10122 10118 10116 10112 10108 10103 10098 10094 10091 10087 10084 10079 10075 10071 10066 10062 10057 10052 10047 10042 10037 10031 10026 10021 10016 10011 10006 10001 9996 9991 9985 9980 9973 9967 9961 9956 9951 9946 9940 9933 9927 9920 9914 9909 9904 9899 9893 9888 9882 9876 9870 9865 9859 9854 9848 9843 9837 9833
10188 10186 10183 10180 10177 10173 10170 10168 10166 10163 10161 10158 10155 10152 10150 10146 10143 10140 10138 10134 10131 10128 10124 10120 10116 10112 10108 10105 10102 10099 10096 10091 10087 10082 10078 10075 10072 10068 10063 10059 10054 10050 10045 10041 10037 10032 10027 10022 10017 10012 10007 10002 9996 9991 9986 9981 9976 9971 9965 9960 9954 9948 9943 9938 9932 9927 9921 9915 9908 9902 9897 9892 9887 9882 9876 9870 9864 9859 9854 9848 9843 9838 9833 9828 9823
10169 10166 10164 10162 10159 10155 10152 10150 10147 10144 10142 10139 10136 10134 10131 10128 10125 10122 10119 10117 10114 10110 10107 10104 10100 10095 10092 10089 10086 10083 10079 10075 10070 10066 10062 10059 10056 10052 10047 10043 10039 10034 10030 10025 10021 10017 10012 10007 10002 9997 9993 9988 9982 9977 9972 9967 9962 9957 9952 9947 9941 9935 9930 9925 9919 9913 9907 9901 9895 9889 9883 9879 9875 9871 9865 9859 9853 9848 9843 9837 9832 9827 9823 9818 9814
10149 10147 10145 10143 10140 10138 10135 10132 10129 10127 10124 10122 10119 10116 10112 10109 10107 10104 10101 10099 10096 10093 10090 10086 10082 10078 10075 10072 10069 10066 10062 10058 10054 10050 10046 10043 10039 10035 10031 10028 10024 10020 10015 10011 10006 10002 9997 9992 9987 9982 9978 9973 9968 9962 9958 9952 9947 9943 9938 9933 9928 9922 9916 9911 9905 9899 9893 9887 9882 9876 9871 9866 9863 9859 9854 9849 9843 9838 9832 9827 9822 9817 9813 9809 9804
10130 10129 10126 10124 10121 10120 10117 10115 10113 10110 10107 10105 10102 10098 10095 10092 10089 10087 10084 10082 10079 10076 10073 10069 10065 10061 10058 10055 10053 10049 10045 10042 10038 10034 10031 10027 10023 10019 10015 10012 10008 10004 10000 9995 9990 9986 9981 9977 9972 9967 9963 9958 9953 9948 9943 9938 9933 9928 9923 9918 9913 9908 9903 9898 9892 9886 9880 9874 9869 9864 9859 9854 9851 9847 9843 9838 9833 9827 9822 9817 9812 9808 9804 9799 9795
10112 10110 10108 10106 10104 10101 10099 10097 10095 10093 10090 10088 10085 10082 10079 10076 10073 10070 10068 10065 10062 10059 10056 10052 10049 10045 10042 10039 10036 10032 10029 10026 10022 10018 10015 10011 10007 10003 9999 9995 9991 9988 9984 9979 9974 9970 9966 9962 9957 9953 9948 9943 9938 9933 9928 9923 9918 9914 9909 9904 9900 9894 9889 9884 9879 9873 9868 9862 9857 9852 9847 9843 9839 9835 9832 9828 9823 9817 9812 9807 9802 9798 9794 9790 9786
10095 10092 10091 10089 10086 10083 10081 10079 10077 10075 10073 10071 10068 10066 10063 10060 10057 10054 10052 10049 10046 10043 10039 10036 10033 10029 10026 10023 10020 10016 10013 10010 10006 10003 9999 9995 9991 9987 9983 9979 9975 9972 9967 9963 9959 9954 9950 9946 9942 9937 9933 9928 9923 9919 9914 9909 9904 9900 9895 9890 9885 9880 9876 9871 9865 9861 9856 9850 9844 9839 9835 9831 9827 9824 9820 9817 9812 9807 9801 9796 9792 9788 9785 9781 9777
10078 10076 10074 10072 10069 10066 10064 10062 10060 10058 10056 10053 10051 10049 10047 10044 10041 10038 10035 10032 10030 10027 10023 10020 10017 10014 10010 10007 10004 10000 9997 9993 9990 9986 9983 9979 9975 9971 9967 9963 9960 9956 9951 9947 9943 9939 9935 9931 9927 9922 9918 9913 9909 9905 9900 9895 9890 9886 9881 9877 9872 9867 9862 9857 9852 9848 9844 9838 9832 9827 9822 9818 9815 9812 9809 9805 9801 9797 9792 9786 9782 9778 9775 9771 9768
10060 10058 10057 10056 10054 10051 10048 10046 10044 10042 10039 10037 10035 10033 10030 10028 10025 10022 10019 10016 10014 10010 10007 10004 10001 9997 9994 9990 9987 9983 9979 9976 9973 9970 9966 9962 9959 9955 9951 9948 9944 9940 9936 9932 9928 9924 9920 9916 9912 9908 9903 9899 9895 9890 9886 9881 9876 9872 9867 9863 9859 9854 9849 9844 9839 9835 9831 9826 9821 9816 9811 9806 9803 9800 9797 9793 9790 9786 9782 9777 9772 9768 9765 9761 9758
10043 10041 10039 10038 10036 10034 10032 10030 10028 10025 10023 10021 10019 10017 10014 10011 10008 10006 10003 10000 9997 9993 9990 9987 9984 9981 9977 9973 9970 9966 9962 9959 9956 9953 9949 9946 9943 9939 9935 9932 9928 9924 9920 9916 9913 9909 9905 9901 9897 9893 9889 9885 9881 9876 9872 9867 9862 9858 9854 9850 9845 9841 9836 9831 9826 9822 9817 9813 9808 9804 9799 9795 9792 9789 9785 9782 9779 9775 9772 9767 9763 9759 9755 9752 9749
10027 10025 10023 10020 10018 10016 10014 10012 10011 10009 10007 10005 10003 10001 9998 9995 9992 9990 9987 9984 9980 9977 9974 9970 9967 9964 9960 9957 9953 9950 9946 9942 9939 9936 9933 9930 9927 9923 9919 9916 9912 9909 9905 9901 9897 9894 9890 9886 9882 9879 9874 9870 9866 9861 9857 9852 9848 9844 9840 9836 9832 9827 9823 9819 9814 9809 9804 9799 9795 9791 9788 9785 9782 9778 9774 9771 9768 9765 9762 9757 9753 9750 9746 9742 9739
10011 10009 10007 10004 10002 10000 9998 9996 9994 9993 9991 9988 9986 9984 9981 9978 9976 9973 9970 9967 9964 9960 9957 9953 9950 9947 9943 9940 9936 9933 9929 9926 9923 9920 9917 9913 9910 9906 9903 9900 9897 9894 9890 9886 9883 9880 9876 9872 9868 9864 9859 9855 9850 9846 9841 9838 9834 9830 9827 9823 9818 9814 9810 9806 9801 9797 9792 9787 9783 9779 9776 9774 9771 9768 9764 9760 9757 9754 9751 9747 9744 9741 9737 9734 9730
9995 9992 9990 9988 9986 9984 9982 9980 9978 9975 9973 9971 9968 9965 9963 9960 9957 9954 9951 9949 9946 9942 9939 9936 9933 9929 9926 9923 9919 9916 9913 9910 9907 9904 9901 9898 9894 9891 9888 9885 9882 9879 9876 9872 9869 9865 9861 9857 9853 9848 9844 9839 9835 9831 9827 9824 9821 9817 9814 9809 9805 9801 9797 9793 9789 9784 9780 9776 9771 9767 9764 9762 9760 9757 9754 9750 9747 9744 9740 9737 9734 9732 9728 9725 9721
9979 9976 9974 9972 9970 9967 9965 9963 9961 9959 9956 9954 9951 9948 9945 9943 9940 9937 9934 9931 9928 9925 9922 9919 9916 9913 9910 9906 9903 9901 9898 9895 9892 9889 9886 9883 9880 9877 9874 9870 9868 9864 9861 9858 9854 9850 9846 9842 9838 9833 9828 9824 9820 9816 9813 9810 9807 9804 9800 9795 9791 9788 9784 9780 9776 9772 9768 9764 9759 9755 9753 9751 9749 9746 9743 9740 9737 9734 9730 9727 9725 9722 9719 9716 9713